Location: Central Falls
(41.8900°N, 71.3929°W)
Time: 11:57:47
(UTC+00:00)

A-11 Canister half - Pass Details

Date: 12 December 2023
Orbit: 1512 x 1687 km, 47.2° (Epoch: 20 February)

Event Time Altitude Azimuth Distance (km) Brightness Sun altitude
Rises 07:15:42 0° 289° (WNW) 4,776 - -52.4°
Reaches altitude 10° 07:18:46 10° 291° (WNW) 3,814 - -51.9°
Maximum altitude 07:28:34 75° 17° (NNE) 1,693 - -50.1°
Exits shadow 07:32:48 40° 93° (E) 2,270 10.0 -49.4°
Drops below altitude 10° 07:38:41 10° 103° (ESE) 3,931 11.6 -48.3°
Sets 07:41:53 0° 105° (ESE) 4,929 12.2 -47.7°
